TimeCDT,TemperatureF,Dew PointF,Humidity,Sea Level PressureIn,VisibilityMPH,Wind Direction,Wind SpeedMPH,Gust SpeedMPH,PrecipitationIn,Events,Conditions,WindDirDegrees,DateUTC
12:55 AM,62.4,56.7,81,30.04,10.0,Variable,6.9,-,N/A,,Clear,0,2012-10-04 05:55:00
1:55 AM,61.9,56.5,82,30.06,10.0,South,5.8,-,N/A,,Clear,190,2012-10-04 06:55:00
2:55 AM,61.2,56.1,83,30.07,10.0,Variable,5.8,-,N/A,,Mostly Cloudy,0,2012-10-04 07:55:00
3:55 AM,60.3,55.8,85,30.07,10.0,South,5.8,-,N/A,,Clear,180,2012-10-04 08:55:00
4:55 AM,59.2,55.4,87,30.08,10.0,South,5.8,-,N/A,,Clear,180,2012-10-04 09:55:00
5:55 AM,58.6,55.2,88,30.10,10.0,South,4.6,-,N/A,,Clear,190,2012-10-04 10:55:00
6:55 AM,59.4,55.2,86,30.12,10.0,Variable,5.8,-,N/A,,Clear,0,2012-10-04 11:55:00
7:55 AM,61.3,55.8,82,30.14,10.0,Variable,5.8,-,N/A,,Clear,0,2012-10-04 12:55:00
8:55 AM,65.5,56.8,74,30.14,10.0,SSW,5.8,-,N/A,,Clear,200,2012-10-04 13:55:00
9:55 AM,68.7,57.6,67,30.14,10.0,SSW,6.9,-,N/A,,Overcast,200,2012-10-04 14:55:00
10:55 AM,74.1,57.4,56,30.14,10.0,SSW,8.1,-,N/A,,Partly Cloudy,200,2012-10-04 15:55:00
11:55 AM,78.3,57.0,48,30.13,10.0,SW,11.5,-,N/A,,Overcast,230,2012-10-04 16:55:00
12:55 PM,79.0,58.1,49,30.12,10.0,SSW,9.2,-,N/A,,Overcast,210,2012-10-04 17:55:00
1:55 PM,78.4,57.6,49,30.10,10.0,Variable,5.8,-,N/A,,Mostly Cloudy,0,2012-10-04 18:55:00
2:55 PM,78.4,58.5,50,30.09,10.0,Variable,4.6,-,N/A,,Overcast,0,2012-10-04 19:55:00
3:55 PM,78.4,57.7,49,30.08,10.0,SW,5.8,-,N/A,,Overcast,220,2012-10-04 20:55:00
4:55 PM,77.9,57.9,50,30.08,10.0,SSW,3.5,-,N/A,,Overcast,210,2012-10-04 21:55:00
5:55 PM,72.5,59.7,64,30.10,10.0,NNW,10.4,-,N/A,,Overcast,330,2012-10-04 22:55:00
6:55 PM,69.8,59.9,71,30.12,10.0,NNW,11.5,-,N/A,,Overcast,340,2012-10-04 23:55:00
7:55 PM,63.7,55.8,75,30.14,10.0,NNW,5.8,-,N/A,,Mostly Cloudy,340,2012-10-05 00:55:00
8:55 PM,63.7,54.3,72,30.14,10.0,NNW,5.8,-,N/A,,Overcast,340,2012-10-05 01:55:00
9:55 PM,59.7,53.1,79,30.15,10.0,NNW,6.9,-,N/A,,Clear,340,2012-10-05 02:55:00
10:55 PM,56.7,50.2,79,30.15,10.0,North,6.9,-,N/A,,Clear,350,2012-10-05 03:55:00
11:55 PM,54.7,48.7,80,30.15,10.0,North,9.2,-,N/A,,Clear,350,2012-10-05 04:55:00